Date String (YYYY-MM-DD hh:mm:ss) UTC,Instrument flags,Ambient pressure (hPa),Sample flow (lpm),Bypass flow (lpm),Sample temperature (°C),Ambient temperature (°C),ASC tube jacket temperature (°C),LED temperature (°C),Box temperature (°C),Sample RH (%),Span deviation,Mass concentration (μg/m³),Mass concentration (μg/m³),Mass concentration (μg/m³)
DateTimeUTC,F1_M11,P_M11,Q1_M11,Q2_M11,T1_M11,T2_M11,T3_M11,T4_M11,T5_M11,U1_M11,ZSPAN_M11,X2_M11,X0_M11,X1_M11
2021-08-27 10:00:00,,0827.2,5.00,0.00,29.7,28.6,00.0,38.7,31.4,19.8,0002.2,0002.98,0004.68,0002.69
2021-08-27 10:01:00,,0827.2,5.00,0.00,29.7,28.7,00.0,38.7,31.4,19.7,0002.2,0002.98,0004.65,0002.71
2021-08-27 10:02:00,,0827.2,5.00,0.00,29.7,28.7,00.0,38.8,31.4,19.8,0000.7,0002.99,0004.65,0002.70
2021-08-27 10:03:00,,0827.2,4.99,0.00,29.7,28.7,00.0,38.8,31.5,19.8,0000.0,0002.99,0004.20,0002.69
2021-08-27 10:04:00,,0827.1,5.00,0.00,29.7,28.8,00.0,38.8,31.5,19.7,0000.0,0003.00,0004.20,0002.69
2021-08-27 10:05:00,,0827.1,5.00,0.00,29.8,28.9,00.0,38.8,31.6,19.6,0000.0,0003.02,0004.08,0002.69
2021-08-27 10:06:00,,0827.1,5.00,0.00,29.8,28.9,00.0,38.8,31.6,19.5,0000.0,0003.05,0004.10,0002.71
2021-08-27 10:07:00,,0827.2,4.99,0.00,29.8,28.9,00.0,38.8,31.6,19.6,0000.0,0003.07,0004.16,0002.73
2021-08-27 10:08:00,,0827.1,5.02,0.00,29.8,28.9,00.0,38.8,31.6,19.5,0000.0,0003.07,0004.16,0002.72
2021-08-27 10:09:00,,0827.1,5.00,0.00,29.9,29.0,00.0,38.9,31.6,19.5,0000.0,0003.07,0004.03,0002.72
2021-08-27 10:10:00,,0827.2,5.00,0.00,29.9,29.0,00.0,38.9,31.7,19.5,0000.0,0003.06,0003.92,0002.73
2021-08-27 10:11:00,,0827.2,5.00,0.00,29.9,29.0,00.0,38.9,31.7,19.4,0000.0,0003.09,0004.02,0002.73
2021-08-27 10:12:00,,0827.2,4.99,0.00,29.9,29.0,00.0,38.9,31.7,19.4,0000.0,0003.09,0005.18,0002.73
2021-08-27 10:13:00,,0827.2,5.01,0.00,29.9,29.0,00.0,38.9,31.7,19.5,0000.0,0003.10,0005.29,0002.75
2021-08-27 10:14:00,,0827.2,5.01,0.00,30.0,29.0,00.0,39.0,31.7,19.3,0000.8,0003.11,0005.31,0002.77
2021-08-27 10:15:00,,0827.2,5.00,0.00,30.0,29.1,00.0,39.0,31.7,19.3,0002.0,0003.11,0005.39,0002.77
2021-08-27 10:16:00,,0827.2,4.99,0.00,30.0,29.1,00.0,39.0,31.8,19.2,0002.7,0003.08,0005.36,0002.77
2021-08-27 10:17:00,,0827.2,5.00,0.00,30.0,29.1,00.0,39.0,31.8,19.3,0002.5,0003.08,0005.35,0002.77
2021-08-27 10:18:00,,0827.2,4.99,0.00,30.0,29.1,00.0,39.0,31.8,19.4,0000.5,0003.06,0005.29,0002.75
2021-08-27 10:19:00,,0827.2,5.01,0.00,30.0,29.1,00.0,39.0,31.8,19.2,0002.0,0003.05,0005.28,0002.76
2021-08-27 10:20:00,,0827.2,5.00,0.00,30.0,29.1,00.0,39.1,31.7,19.2,0001.6,0003.02,0005.21,0002.75
2021-08-27 10:21:00,,0827.2,4.99,0.00,30.0,29.1,00.0,39.1,31.7,19.2,0001.8,0003.06,0005.26,0002.76
2021-08-27 10:22:00,,0827.2,5.00,0.00,30.1,29.1,00.0,39.1,31.8,19.1,0002.0,0003.04,0005.21,0002.76
2021-08-27 10:23:00,,0827.2,5.01,0.00,30.1,29.1,00.0,39.1,31.8,19.2,0001.8,0003.02,0004.03,0002.75
2021-08-27 10:24:00,,0827.2,5.00,0.00,30.1,29.1,00.0,39.1,31.8,19.1,0001.8,0003.01,0003.97,0002.74
2021-08-27 10:25:00,,0827.2,4.99,0.00,30.1,29.1,00.0,39.1,31.8,19.1,0001.4,0002.98,0003.91,0002.72
2021-08-27 10:26:00,,0827.2,5.00,0.00,30.1,29.1,00.0,39.1,31.9,19.1,0001.4,0002.98,0003.81,0002.71
2021-08-27 10:27:00,,0827.2,5.00,0.00,30.1,29.1,00.0,39.2,31.9,19.1,0001.1,0002.98,0003.77,0002.72
2021-08-27 10:28:00,,0827.2,5.01,0.00,30.1,27.9,00.0,39.2,31.5,19.1,0001.3,0002.98,0003.77,0002.72
2021-08-27 10:29:00,,0827.2,5.00,0.00,29.9,26.3,00.0,39.1,31.1,19.3,0001.8,0002.96,0003.77,0002.72
2021-08-27 10:30:00,,0827.2,4.99,0.00,29.8,26.3,00.0,39.1,31.1,19.4,0002.1,0002.96,0003.81,0002.72
2021-08-27 10:31:00,,0827.2,5.01,0.00,29.7,26.7,00.0,39.0,31.1,19.5,0002.3,0002.97,0003.83,0002.72
2021-08-27 10:32:00,,0827.2,5.00,0.00,29.7,27.1,00.0,39.0,31.2,19.6,0001.9,0002.94,0003.79,0002.72
2021-08-27 10:33:00,,0827.2,4.99,0.00,29.7,27.5,00.0,38.9,31.3,19.6,0001.3,0002.97,0004.18,0002.73
2021-08-27 10:34:00,,0827.2,5.00,0.00,29.7,27.7,00.0,38.9,31.3,19.7,0001.5,0002.97,0004.21,0002.73
2021-08-27 10:35:00,,0827.2,4.99,0.00,29.7,28.0,00.0,38.9,31.3,19.7,0001.8,0002.94,0004.09,0002.73
2021-08-27 10:36:00,,0827.1,5.01,0.00,29.7,28.1,00.0,38.9,31.4,19.7,0001.6,0002.95,0004.13,0002.73
2021-08-27 10:37:00,,0827.2,5.00,0.00,29.7,28.3,00.0,38.9,31.4,19.9,0001.5,0002.94,0004.16,0002.72
2021-08-27 10:38:00,,0827.2,5.00,0.00,29.7,28.4,00.0,38.9,31.4,20.1,0000.0,0002.93,0004.17,0002.69
2021-08-27 10:39:00,,0827.1,5.00,0.00,29.7,28.5,00.0,38.9,31.4,20.1,0000.0,0002.93,0004.18,0002.68
2021-08-27 10:40:00,,0827.2,4.99,0.00,29.7,28.6,00.0,38.9,31.5,20.1,0000.0,0002.94,0004.19,0002.67
2021-08-27 10:41:00,,0827.2,4.99,0.00,29.8,28.7,00.0,38.9,31.5,20.1,0000.0,0002.94,0004.17,0002.65
2021-08-27 10:42:00,,0827.2,5.00,0.00,29.8,28.8,00.0,38.9,31.5,20.2,0000.2,0002.94,0004.19,0002.64
2021-08-27 10:43:00,,0827.2,5.02,0.00,29.8,28.8,00.0,38.9,31.6,20.1,0001.7,0002.92,0004.22,0002.63
2021-08-27 10:44:00,,0827.3,5.00,0.00,29.8,28.9,00.0,38.9,31.6,20.2,0002.4,0002.93,0003.98,0002.63
2021-08-27 10:45:00,,0827.2,5.00,0.00,29.8,28.9,00.0,38.9,31.6,20.2,0000.8,0002.97,0004.04,0002.61
2021-08-27 10:46:00,,0827.2,5.01,0.00,29.9,29.0,00.0,38.9,31.7,20.1,0000.0,0002.97,0004.15,0002.60
2021-08-27 10:47:00,,0827.3,4.99,0.00,29.9,29.0,00.0,38.9,31.7,20.2,0000.0,0002.96,0004.12,0002.58
2021-08-27 10:48:00,,0827.3,5.00,0.00,29.9,29.1,00.0,38.9,31.7,20.1,0000.9,0002.95,0004.10,0002.56
2021-08-27 10:49:00,,0827.3,5.00,0.00,30.0,29.1,00.0,39.0,31.8,20.0,0000.6,0002.94,0004.09,0002.57
2021-08-27 10:50:00,,0827.3,5.00,0.00,30.0,29.2,00.0,39.0,31.8,19.9,0000.4,0002.94,0004.14,0002.57
2021-08-27 10:51:00,,0827.3,5.00,0.00,30.0,29.2,00.0,39.0,31.8,19.9,0000.0,0002.91,0004.07,0002.57
2021-08-27 10:52:00,,0827.3,5.01,0.00,30.0,29.2,00.0,39.0,31.8,19.8,0000.0,0002.92,0004.04,0002.59
2021-08-27 10:53:00,,0827.3,5.00,0.00,30.1,29.2,00.0,39.0,31.9,19.6,0000.0,0002.94,0004.09,0002.59
2021-08-27 10:54:00,,0827.3,5.00,0.00,30.1,29.2,00.0,39.0,31.9,19.6,0000.0,0002.97,0004.38,0002.59
2021-08-27 10:55:00,,0827.3,5.01,0.00,30.1,29.2,00.0,39.1,31.9,19.5,0000.0,0002.93,0004.30,0002.58
2021-08-27 10:56:00,,0827.3,5.00,0.00,30.1,29.3,00.0,39.1,31.9,19.5,0000.0,0002.89,0004.13,0002.58
2021-08-27 10:57:00,,0827.3,4.99,0.00,30.1,29.3,00.0,39.1,31.9,19.5,0000.0,0002.86,0003.94,0002.58
2021-08-27 10:58:00,,0827.2,5.00,0.00,30.2,29.3,00.0,39.1,32.0,19.5,0000.0,0002.86,0003.93,0002.59
2021-08-27 10:59:00,,0827.2,5.01,0.00,30.2,29.3,00.0,39.2,32.0,19.5,0000.0,0002.87,0003.94,0002.60
